This is the latest recevied weather packets stored in our database for station/object YD2CLX-13. If no packets are shown the sender has not sent any weather packets the latest 10 day(s).
| Time | Temp. | Humidity | Pressure | Rain* | Wind** | Luminosity | Snow |
|---|---|---|---|---|---|---|---|
| 1777959575 | 15° C | 66% | 797.1 hPa | 0 mm | - | - | - |
| 1777958967 | 14.44° C | 66% | 797.2 hPa | 0 mm | - | - | - |
| 1777958359 | 14.44° C | 66% | 797.3 hPa | 0 mm | - | - | - |
| 1777957142 | 15° C | 67% | 797.5 hPa | 0 mm | - | - | - |
| 1777956534 | 13.33° C | 67% | 797.6 hPa | 0 mm | - | - | - |
| 1777955924 | 13.33° C | 67% | 797.8 hPa | 0 mm | - | - | - |
| 1777955316 | 15° C | 68% | 797.9 hPa | 0 mm | - | - | - |
| 1777954707 | 15.56° C | 68% | 797.9 hPa | 0 mm | - | - | - |
| 1777954099 | 14.44° C | 67% | 798.1 hPa | 0 mm | - | - | - |
| 1777953490 | 14.44° C | 68% | 798.1 hPa | 0 mm | - | - | - |
| 1777952881 | 14.44° C | 68% | 798.3 hPa | 0 mm | - | - | - |
| 1777952271 | 15° C | 68% | 798.3 hPa | 0 mm | - | - | - |
| 1777951661 | 15° C | 69% | 798.3 hPa | 0 mm | - | - | - |
| 1777951052 | 13.89° C | 68% | 798.4 hPa | 0 mm | - | - | - |
| 1777950440 | 13.89° C | 68% | 798.3 hPa | 0 mm | - | - | - |
| 1777949831 | 15° C | 69% | 798.3 hPa | 0 mm | - | - | - |
| 1777949217 | 13.33° C | 68% | 798.3 hPa | 0 mm | - | - | - |
| 1777947987 | 13.33° C | 68% | 798.4 hPa | 0 mm | - | - | - |
| 1777947371 | 14.44° C | 68% | 798.4 hPa | 0 mm | - | - | - |
| 1777945525 | 14.44° C | 69% | 798.4 hPa | 0 mm | - | - | - |
| 1777944909 | 14.44° C | 70% | 798.3 hPa | 0 mm | - | - | - |
| 1777944293 | 14.44° C | 69% | 798.2 hPa | 0 mm | - | - | - |
| 1777943678 | 13.33° C | 69% | 798.2 hPa | 0 mm | - | - | - |
| 1777943064 | 14.44° C | 69% | 798 hPa | 0 mm | - | - | - |
| 1777941835 | 14.44° C | 69% | 797.9 hPa | 0 mm | - | - | - |
* Rain latest hour (hover to see other rain measurements)
** Current wind speed in m/s (hover to see current wind gust speed)